Location: Coopersdale
(40.3556°N, 78.9372°W)
Time: 10:06:41
(UTC+00:00)

Vanguard 1 - All Passes

Search period start: 24 January 2021 00:00
Search period end: 03 February 2021 00:00
Orbit: 648 x 3834 km, 34.3° (Epoch: 23 January)

Date Brightness Start Highest point End Pass type
(mag) Time Alt. Az. Time Alt. Az. Time Alt. Az.
24 Jan - 01:48:11 10° W 02:03:05 25° SW 02:13:49 10° S visible
24 Jan - 14:20:26 10° SE 14:24:37 11° ESE 14:29:15 10° ESE daylight
24 Jan - 16:30:21 10° SSW 16:44:56 42° SE 17:05:20 10° E daylight
24 Jan - 18:50:01 10° WSW 19:09:26 69° SSE 19:32:27 10° E daylight
24 Jan - 21:13:41 10° W 21:36:32 72° S 21:56:45 10° ESE daylight
24 Jan - 23:40:10 10° W 00:01:56 50° SSW 00:17:31 10° SE visible
25 Jan - 02:11:34 10° W 02:23:08 18° SW 02:32:07 10° SSW visible
25 Jan - 14:36:02 10° SSE 14:44:33 18° SE 14:55:26 10° E daylight
25 Jan - 16:50:21 10° SW 17:05:32 49° SSE 17:27:08 10° E daylight
25 Jan - 19:10:55 10° WSW 19:30:47 72° S 19:53:49 10° E daylight
25 Jan - 21:35:01 10° W 21:57:54 69° SSW 22:17:40 10° ESE daylight
26 Jan - 00:01:57 10° W 00:22:35 43° SW 00:37:31 10° SSE visible
26 Jan - 02:37:11 10° WSW 02:43:05 12° WSW 02:48:15 10° SW visible
26 Jan - 14:54:13 10° S 15:04:34 24° SE 15:18:57 10° E daylight
26 Jan - 17:10:37 10° SW 17:26:20 57° SSE 17:48:47 10° E daylight
26 Jan - 19:31:56 10° WSW 19:52:14 74° S 20:15:07 10° E daylight
26 Jan - 21:56:23 10° W 22:19:09 64° SSW 22:38:25 10° SE daylight
27 Jan - 00:23:57 10° W 00:43:02 35° SW 00:57:11 10° SSE visible
27 Jan - 15:13:18 10° S 15:24:43 32° SE 15:41:33 10° E daylight
27 Jan - 17:31:06 10° SW 17:47:18 63° SSE 18:10:21 10° E daylight
27 Jan - 19:53:02 10° W 20:13:42 74° S 20:36:22 10° ESE daylight
27 Jan - 22:17:50 10° W 22:40:16 58° SSW 22:58:59 10° SE visible
28 Jan - 00:46:23 10° W 01:03:19 28° SW 01:16:20 10° S visible
28 Jan - 15:32:55 10° SSW 15:45:01 40° SE 16:03:42 10° E daylight
28 Jan - 17:51:46 10° WSW 18:08:27 68° SSE 18:31:53 10° E daylight
28 Jan - 20:14:12 10° W 20:35:10 72° S 20:57:31 10° ESE daylight
28 Jan - 22:39:21 10° W 23:01:12 51° SSW 23:19:19 10° SE visible
29 Jan - 01:09:34 10° W 01:23:28 21° SW 01:34:44 10° SSW visible
29 Jan - 13:39:34 10° SSE 13:45:34 15° ESE 13:53:05 10° E daylight
29 Jan - 15:52:53 10° SW 16:05:31 47° SE 16:25:34 10° E daylight
29 Jan - 18:12:36 10° WSW 18:29:45 72° S 18:53:22 10° E daylight
29 Jan - 20:35:24 10° W 20:56:34 69° SSW 21:18:32 10° ESE daylight
29 Jan - 23:01:00 10° W 23:21:58 44° SW 23:39:21 10° SSE visible
30 Jan - 01:34:24 10° W 01:43:33 14° WSW 01:51:31 10° SSW visible
30 Jan - 13:57:26 10° S 14:05:31 21° SE 14:16:56 10° E daylight
30 Jan - 16:13:07 10° SW 16:26:13 55° SSE 16:47:19 10° E daylight
30 Jan - 18:33:30 10° WSW 18:51:06 73° S 19:14:48 10° E daylight
30 Jan - 20:56:39 10° W 21:17:52 64° SSW 21:39:22 10° SE daylight
30 Jan - 23:22:54 10° W 23:42:33 36° SW 23:59:00 10° SSE visible
31 Jan - 14:16:26 10° S 14:25:36 28° SE 14:39:39 10° E daylight
31 Jan - 16:33:34 10° SW 16:47:05 61° SSE 17:08:58 10° E daylight
31 Jan - 18:54:30 10° W 19:12:32 73° S 19:36:10 10° ESE daylight
31 Jan - 21:17:57 10° W 21:39:04 58° SSW 21:59:59 10° SE daylight
31 Jan - 23:45:12 10° W 00:03:00 29° SW 00:18:09 10° S visible
01 Feb - 14:36:00 10° SSW 14:45:50 36° SE 15:01:50 10° E daylight
01 Feb - 16:54:12 10° WSW 17:08:08 67° SSE 17:30:35 10° E daylight
01 Feb - 19:15:33 10° W 19:33:57 72° S 19:57:26 10° ESE daylight
01 Feb - 21:39:21 10° W 22:00:06 51° SSW 22:20:21 10° SE daylight
02 Feb - 00:08:12 10° W 00:23:19 22° SW 00:36:34 10° S visible
02 Feb - 12:44:22 10° SE 12:47:09 11° ESE 12:50:18 10° ESE daylight
02 Feb - 14:55:57 10° SSW 15:06:15 44° SE 15:23:45 10° E daylight
02 Feb - 17:14:56 10° WSW 17:29:18 71° S 17:52:10 10° E daylight
02 Feb - 19:36:38 10° W 19:55:20 68° SSW 20:18:33 10° ESE daylight
02 Feb - 22:00:54 10° W 22:20:58 44° SW 22:40:24 10° SSE daylight
